FW3855 Weather Reports


Display with metric or nautical units.
time (UTC)temp
F
wind
direction
speed
MPH
gust
MPH
rain 1hr
in
rain 24hr
in
rain mn
in
humidity
%
barometer
mb
20260831040005 79 176 4.0 15.0 0.00 0.00 0.00 42 1017.7
20260831035506 79 202 6.0 15.0 0.00 0.00 0.00 42 1017.7
20260831035004 79 125 6.0 13.0 0.00 0.00 0.00 42 1017.6
20260831034506 79 271 5.0 15.0 0.00 0.00 0.00 42 1017.7
20260831034005 79 169 6.0 15.0 0.00 0.00 0.00 43 1017.7
20260831033507 79 187 6.0 17.0 0.00 0.00 0.00 42 1017.8
20260831033004 79 226 6.0 17.0 0.00 0.00 0.00 42 1017.5
20260831032503 80 206 5.0 13.0 0.00 0.00 0.00 41 1017.5
20260831031002 80 166 5.0 11.0 0.00 0.00 0.00 43 1017.3
20260831030459 80 193 5.0 18.0 0.00 0.00 0.00 43 1017.3
20260831025958 80 172 5.0 18.0 0.00 0.00 0.00 44 1017.3
20260831025458 80 207 5.0 14.0 0.00 0.00 0.00 44 1017.2
20260831024959 80 220 5.0 14.0 0.00 0.00 0.00 44 1017.3
20260831024453 80 120 5.0 14.0 0.00 0.00 0.00 44 1017.2
20260831023949 80 203 5.0 19.0 0.00 0.00 0.00 43 1017.3
20260831023441 81 186 4.0 19.0 0.00 0.00 0.00 41 1017.2
20260831022935 81 195 4.0 14.0 0.00 0.00 0.00 39 1017.2
20260831022428 81 158 4.0 14.0 0.00 0.00 0.00 38 1017.0
20260831021923 82 144 4.0 24.0 0.00 0.00 0.00 37 1016.9
20260831021417 82 137 3.0 12.0 0.00 0.00 0.00 36 1016.8
20260831020911 83 141 3.0 11.0 0.00 0.00 0.00 37 1016.8
20260831020404 83 203 4.0 10.0 0.00 0.00 0.00 36 1016.9
20260831015906 84 222 5.0 17.0 0.00 0.00 0.00 35 1017.0
20260831015404 84 168 3.0 17.0 0.00 0.00 0.00 34 1017.0
20260831014907 85 181 2.0 8.0 0.00 0.00 0.00 30 1016.9
20260831014404 85 113 2.0 8.0 0.00 0.00 0.00 27 1016.9
20260831013900 86 217 3.0 11.0 0.00 0.00 0.00 23 1016.9
20260831013402 86 275 4.0 11.0 0.00 0.00 0.00 22 1016.8
20260831012900 87 206 4.0 10.0 0.00 0.00 0.00 22 1016.7
20260831012358 87 223 5.0 14.0 0.00 0.00 0.00 21 1016.8
20260831011856 87 242 5.0 14.0 0.00 0.00 0.00 21 1016.8
20260831011359 88 288 5.0 12.0 0.00 0.00 0.00 20 1016.9
20260831010857 88 253 5.0 11.0 0.00 0.00 0.00 20 1016.8
20260831010358 88 231 6.0 14.0 0.00 0.00 0.00 20 1017.0
20260831005857 88 262 7.0 15.0 0.00 0.00 0.00 20 1017.0
20260831005400 88 345 7.0 15.0 0.00 0.00 0.00 20 1017.0
20260831004856 88 233 6.0 15.0 0.00 0.00 0.00 19 1016.9
20260831004357 89 294 6.0 14.0 0.00 0.00 0.00 20 1016.9
20260831003857 89 264 6.0 11.0 0.00 0.00 0.00 19 1016.8
20260831003352 89 217 6.0 11.0 0.00 0.00 0.00 19 1016.8
20260831002845 89 218 6.0 18.0 0.00 0.00 0.00 19 1016.8
20260831002339 89 259 7.0 18.0 0.00 0.00 0.00 19 1016.5
20260831001833 89 285 7.0 15.0 0.00 0.00 0.00 20 1016.6
20260831001327 89 285 7.0 15.0 0.00 0.00 0.00 21 1016.6
20260831000821 89 216 6.0 14.0 0.00 0.00 0.00 20 1016.5
20260831000318 90 297 7.0 14.0 0.00 0.00 0.00 20 1016.4
20260830235305 90 237 7.0 18.0 0.00 0.00 0.00 19 1016.6
20260830234757 90 176 7.0 18.0 0.00 0.00 0.00 19 1016.7
20260830234251 91 257 5.0 16.0 0.00 0.00 0.00 17 1016.7
20260830233745 91 283 4.0 11.0 0.00 0.00 0.00 17 1016.7
20260830232733 91 195 5.0 15.0 0.00 0.00 0.00 17 1016.7
20260830232227 91 229 5.0 15.0 0.00 0.00 0.00 17 1016.6
20260830231216 91 330 5.0 14.0 0.00 0.00 0.00 17 1016.7
20260830230709 90 300 8.0 20.0 0.00 0.00 0.00 18 1016.8
20260830225657 90 271 9.0 19.0 0.00 0.00 0.00 17 1016.9
20260830225151 90 279 8.0 19.0 0.00 0.00 0.00 17 1017.0
20260830223634 91 290 5.0 14.0 0.00 0.00 0.00 16 1017.0
20260830223127 91 170 6.0 14.0 0.00 0.00 0.00 16 1017.0
20260830222621 91 293 7.0 21.0 0.00 0.00 0.00 17 1017.0
20260830222115 91 202 7.0 21.0 0.00 0.00 0.00 16 1017.0
20260830221610 92 139 5.0 13.0 0.00 0.00 0.00 17 1017.2
20260830220557 90 107 4.0 17.0 0.00 0.00 0.00 19 1017.4
20260830220051 89 136 5.0 17.0 0.00 0.00 0.00 21 1017.4
20260830215545 89 188 6.0 15.0 0.00 0.00 0.00 20 1017.5
20260830215039 90 276 7.0 15.0 0.00 0.00 0.00 19 1017.6
20260830214533 90 153 7.0 18.0 0.00 0.00 0.00 19 1017.6
20260830214027 91 141 3.0 15.0 0.00 0.00 0.00 18 1017.5
20260830213521 91 281 2.0 11.0 0.00 0.00 0.00 19 1017.6
20260830212004 88 179 5.0 19.0 0.00 0.00 0.00 20 1017.8
20260830211457 88 167 5.0 16.0 0.00 0.00 0.00 22 1017.7
20260830210951 88 261 5.0 12.0 0.00 0.00 0.00 21 1018.1
20260830205940 88 236 4.0 12.0 0.00 0.00 0.00 22 1018.1
20260830204933 88 155 7.0 15.0 0.00 0.00 0.00 20 1018.2
20260830204438 89 123 6.0 13.0 0.00 0.00 0.00 20 1018.3
20260830203935 88 277 5.0 14.0 0.00 0.00 0.00 21 1018.3
20260830203436 88 245 4.0 17.0 0.00 0.00 0.00 22 1018.4
20260830202934 88 210 5.0 17.0 0.00 0.00 0.00 23 1018.3
20260830202431 87 169 6.0 18.0 0.00 0.00 0.00 24 1018.3
20260830201431 88 204 3.0 15.0 0.00 0.00 0.00 28 1018.4
20260830200931 88 84 6.0 17.0 0.00 0.00 0.00 29 1018.8
20260830200431 88 235 7.0 22.0 0.00 0.00 0.00 28 1018.6
20260830195931 89 100 6.0 22.0 0.00 0.00 0.00 27 1018.9
20260830195430 88 80 6.0 19.0 0.00 0.00 0.00 28 1018.4
20260830194930 89 164 5.0 19.0 0.00 0.00 0.00 26 1018.5
20260830194429 89 327 5.0 18.0 0.00 0.00 0.00 26 1018.5
20260830193922 89 135 6.0 19.0 0.00 0.00 0.00 25 1018.8
20260830193424 89 249 6.0 19.0 0.00 0.00 0.00 25 1018.9
20260830192923 89 55 5.0 14.0 0.00 0.00 0.00 26 1019.0
20260830192422 88 112 5.0 19.0 0.00 0.00 0.00 27 1019.0
20260830191422 88 186 7.0 19.0 0.00 0.00 0.00 26 1019.1
20260830190424 88 149 5.0 18.0 0.00 0.00 0.00 25 1019.3
20260830185923 88 257 6.0 17.0 0.00 0.00 0.00 26 1019.3
20260830185418 88 195 7.0 17.0 0.00 0.00 0.00 26 1019.1
20260830184918 87 164 6.0 17.0 0.00 0.00 0.00 27 1019.3
20260830183419 87 216 7.0 18.0 0.00 0.00 0.00 27 1019.4
20260830182917 88 129 7.0 17.0 0.00 0.00 0.00 26 1019.6
20260830182417 87 96 6.0 17.0 0.00 0.00 0.00 26 1019.7
20260830181918 87 257 5.0 16.0 0.00 0.00 0.00 26 1019.4
20260830181420 86 115 5.0 16.0 0.00 0.00 0.00 28 1019.6
20260830180914 86 110 5.0 16.0 0.00 0.00 0.00 27 1019.6
20260830180411 86 200 7.0 22.0 0.00 0.00 0.00 27 1019.6
20260830175912 86 101 7.0 22.0 0.00 0.00 0.00 28 1019.6
20260830175411 87 107 6.0 17.0 0.00 0.00 0.00 28 1019.6
20260830174913 87 355 6.0 17.0 0.00 0.00 0.00 28 1019.4
20260830174410 86 123 6.0 15.0 0.00 0.00 0.00 28 1019.4
20260830173911 86 154 7.0 21.0 0.00 0.00 0.00 29 1019.6
20260830173409 85 92 7.0 21.0 0.00 0.00 0.00 30 1019.4
20260830172908 85 89 6.0 17.0 0.00 0.00 0.00 31 1019.6
20260830172410 85 304 6.0 17.0 0.00 0.00 0.00 30 1019.6
20260830171909 85 172 6.0 15.0 0.00 0.00 0.00 31 1019.6
20260830171410 85 198 6.0 19.0 0.00 0.00 0.00 31 1019.6
20260830170902 85 287 6.0 19.0 0.00 0.00 0.00 32 1019.6
20260830170401 85 116 6.0 16.0 0.00 0.00 0.00 31 1019.6
20260830165903 84 184 6.0 16.0 0.00 0.00 0.00 32 1019.4
20260830165406 85 69 5.0 16.0 0.00 0.00 0.00 32 1019.6
20260830164900 84 146 5.0 12.0 0.00 0.00 0.00 33 1019.4
20260830164359 84 109 4.0 16.0 0.00 0.00 0.00 33 1019.3
20260830163900 84 179 3.0 16.0 0.00 0.00 0.00 34 1019.4
20260830163357 83 207 5.0 20.0 0.00 0.00 0.00 34 1019.3
20260830162857 83 200 7.0 21.0 0.00 0.00 0.00 34 1019.2
20260830162355 83 137 7.0 21.0 0.00 0.00 0.00 34 1019.3
20260830160855 82 117 6.0 20.0 0.00 0.00 0.00 35 1019.3
20260830160355 82 205 6.0 14.0 0.00 0.00 0.00 34 1019.2
20260830155855 82 65 7.0 17.0 0.00 0.00 0.00 36 1019.2
20260830155400 81 176 8.0 19.0 0.00 0.00 0.00 36 1019.1
20260830154353 81 172 7.0 18.0 0.00 0.00 0.00 37 1019.2
20260830153339 81 220 7.0 19.0 0.00 0.00 0.00 37 1019.2
20260830152833 80 276 7.0 25.0 0.00 0.00 0.00 37 1019.4
20260830152330 80 159 7.0 25.0 0.00 0.00 0.00 38 1019.4
20260830151821 80 144 8.0 18.0 0.00 0.00 0.00 39 1019.3
20260830151315 79 219 8.0 18.0 0.00 0.00 0.00 39 1019.2
20260830150809 80 172 6.0 15.0 0.00 0.00 0.00 39 1019.2
20260830150303 80 158 6.0 17.0 0.00 0.00 0.00 39 1019.2
20260830145757 79 185 7.0 17.0 0.00 0.00 0.00 40 1019.1
20260830145252 79 192 7.0 19.0 0.00 0.00 0.00 41 1019.1
20260830144745 79 187 7.0 19.0 0.00 0.00 0.00 42 1019.1
20260830144239 78 200 7.0 18.0 0.00 0.00 0.00 42 1019.1
20260830143733 78 160 6.0 17.0 0.00 0.00 0.00 42 1019.1
20260830143227 78 167 7.0 17.0 0.00 0.00 0.00 43 1019.1
20260830142721 77 123 8.0 17.0 0.00 0.00 0.00 43 1019.1
20260830142218 77 217 8.0 19.0 0.00 0.00 0.00 44 1019.0
20260830141720 77 190 7.0 19.0 0.00 0.00 0.00 44 1019.1
20260830140717 77 171 5.0 18.0 0.00 0.00 0.00 44 1019.1
20260830140219 76 186 5.0 18.0 0.00 0.00 0.00 45 1019.1
20260830135719 76 108 6.0 14.0 0.00 0.00 0.00 45 1019.0
20260830135219 76 198 4.0 14.0 0.00 0.00 0.00 46 1019.0
20260830133620 0 0.0 0.0 0.00 0.00 0.00 1018.9
20260830133115 0 0.0 0.0 0.00 0.00 0.00 1018.8
20260830131411 0 0.0 0.0 0.00 0.00 0.00 1018.6
20260830130822 0 0.0 0.0 0.00 0.00 0.00 1018.5
20260830125731 0 0.0 0.0 0.00 0.00 0.00 1018.4
20260830125225 0 0.0 0.0 0.00 0.00 0.00 1018.5